Flag for Canada Weather past 2 weeks in Thompson, Manitoba, Canada

Now
-13 °F

Partly cloudy.


Feels Like: -30 °F
Forecast: -19 / -14 °F
Wind: 8 mph from Northwest

Location: Thompson

Current Time: Dec 29, 2014 at 10:10:41 AM

Latest Report: Dec 29, 2014 at 9:00 AM


Visibility: 15 mi

Pressure: 30.61 "Hg

Humidity: 69%

Dew point: -20 °F

Location of ThompsonLocation

Historic Weather in Thompson — Graph

°F

Thompson temperature yesterday

Maximum temperature yesterday: -17 °F (at 2:00 PM)
Minimum temperature yesterday: -26 °F (at 8:00 AM)
Average temperature yesterday: -20 °F

Past Weeks' High & Low Weather Summary

 TemperatureHumidityPressure
High23 °F (Dec 21, 2:00 PM)100% (Dec 21, 8:00 AM)30.60 "Hg (Dec 21, 8:00 AM)
Low-31 °F (Dec 27, 12:00 AM)62% (Dec 28, 12:00 PM)29.57 "Hg (Dec 24, 10:00 PM)
Average4 °F84%30.11 "Hg
* Reported Dec 14 8:00 AM — Dec 29 8:00 AM, Thompson, Weather by CustomWeather, © 2014

Note: Actual official high and low records may vary slightly from our data, if they occured in-between our weather recording intervals... More about our weather records

Advertising

Thompson weather history for previous 24 hours

 ConditionsComfort  
Time TempWeatherWind HumidityBarometerVisibility
8:00 AM
Dec 29
-13 °FLight snow. Partly cloudy.10 mph69%30.60 "Hg15 mi
7:00 AM-15 °FLight snow. Partly cloudy.8 mph69%30.60 "Hg15 mi
6:00 AM-17 °FLight snow. Passing clouds.9 mph69%30.58 "Hg15 mi
5:00 AM-18 °FLight snow. Passing clouds.10 mph75%30.57 "Hg12 mi
4:00 AM-18 °FLight snow. Passing clouds.10 mph69%30.56 "Hg15 mi
3:00 AM-20 °FLight snow. Passing clouds.10 mph75%30.55 "Hg15 mi
2:00 AM-18 °FClear.9 mph69%30.53 "Hg15 mi
1:00 AM-18 °FPassing clouds.9 mph75%30.53 "Hg15 mi
12:00 AM-17 °FPassing clouds.12 mph69%30.52 "Hg15 mi
11:00 PM
Dec 28
-17 °FClear.9 mph69%30.51 "Hg15 mi
10:00 PM-17 °FClear.7 mph69%30.52 "Hg15 mi
9:00 PM-18 °FClear.8 mph75%30.52 "Hg15 mi
8:00 PM-18 °FClear.10 mph69%30.51 "Hg15 mi
7:00 PM-18 °FPassing clouds.9 mph69%30.51 "Hg15 mi
6:00 PM-20 °FPassing clouds.9 mph75%30.50 "Hg15 mi
5:00 PM-18 °FClear.10 mph69%30.50 "Hg15 mi
4:00 PM-18 °FPassing clouds.9 mph69%30.47 "Hg15 mi
3:00 PM-17 °FSunny.7 mph69%30.45 "Hg15 mi
2:00 PM-17 °FSunny.9 mph69%30.44 "Hg15 mi
1:00 PM-18 °FSunny.7 mph69%30.43 "Hg15 mi
12:00 PM-20 °FSunny.8 mph62%30.42 "Hg15 mi
11:00 AM-24 °FPassing clouds.8 mph68%30.40 "Hg15 mi
10:00 AM-26 °FPassing clouds.9 mph67%30.39 "Hg15 mi
Weather by CustomWeather, © 2014

See weather overviewHow to use our weather pages